CZ-6A DEB, 54608

Orbit data source: Space-Track

CZ-6A DEB, 54608 is space debris in SSO originally from a launch on Fri, 11 Nov 2022 UTC launched from the Taiyaun Space Center, China (TSC). Debris objects in space refer to the collection of defunct objects orbiting the Earth. Examples of debris include non-operational satellites, rocket bodies, and fragments generated from explosions, collisions, or faulty payload assembly.

Loading next visibility...
Identifier
54608, 2022-151NJ
Orbit
SSO
Country
Flag of CNCN / PRC
Related business
Manufacturer
SAST
Mission
Spacecraft
Bus & Motor
Unknown
Mass
Unknown
Launch date (UTC)
2022-11-11 (4 years ago)
Launch vehicle
Unknown
Launch site
Taiyaun Space Center, China (TSC)
Object type
Payload
Rocket body
Debris
Shape & HBR
Unknown shape, 0.1 m
Radar Cross Section
Medium (>0.1 m² and <1 m²)

Expand to show TLE details & history
Last TLE update: 6 hours ago

TLE from 6 hours ago
0 CZ-6A DEB
1 54608U 22151NJ  26207.22900286  .00000422  00000-0  27144-3 0  9999
2 54608  98.8545 197.4686 0062511 243.2228 116.2537 14.07554439189334
Epoch: 2026-07-26T05:29Z
TLE epoch observation values (Epoch: 2026-07-26T05:29:45.847Z)
Latitude
-0.00002°
Longitude
171.09764°
Altitude
890.912 km
Speed
7.396 km/s
True Right ascension
13h 09m 52s
True Declination
0° 00' 00"
Sunlit
Object was in daylight at epoch
Visualization orbit readout
Latitude
Unknown
Longitude
Unknown
Altitude
Unknown
Speed
Unknown
Apparent Right ascension
Unknown
Apparent Declination
Unknown
Sunlit
N/A
Visualization observer readout
Local Sidereal Time
01:04:21
Azimuth
Unknown
Elevation
Unknown
Doppler factor
Unknown
Orbital elements
Apogee altitude
910.212 km
Perigee altitude
819.657 km
Semi-major axis
7,243.072 km
Eccentricity
0.00625
Inclination
98.8545°
RAAN
197.4686°
Arg. of periapsis
243.2228°
True anomaly
116.8939°
Mean anomaly
116.2537°
Eccentric anomaly
116.57402°
Mean motion
3.52094 °/min
Orbital period
102.25 mins
BSTAR
0.00027144
Loading maneuver chart data...
Computing Atmospheric mass density...

Documentation

Showing up to 5 results
|